User: anonymous   Login
Location: Sabalos
(43.2860°N, 0.1414°E)
Time: 12:26:25
(UTC+00:00)
Language:

Cosmos 1602 Rocket - Orbit

View from above orbital plane
View from above orbital plane
View from above satellite
View from above satellite

Ground track
Ground track

The orbit data is extracted from the following two-line orbital elements,

1 15332U 84105B   20271.76910684 +.00000086 +00000-0 +75041-5 0  9991
2 15332 082.5350 147.6180 0021719 021.4960 045.1869 14.83428312923180
Epoch (UTC): 27 September 2020 18:27:30
Eccentricity: 0.0021719
inclination: 82.5350°
perigee height: 603 km
apogee height: 634 km
right ascension of ascending node: 147.6180°
argument of perigee: 21.4960°
revolutions per day: 14.83428312
mean anomaly at epoch: 45.1869°
orbit number at epoch: 92318

The dashed part of the orbit path shows where the satellite is in the earth's shadow,  

DLR